This is the latest recevied weather packets stored in our database for station/object SP9KB-13. If no packets are shown the sender has not sent any weather packets the latest 10 day(s).
| Time | Temp. | Humidity | Pressure | Rain* | Wind** | Luminosity | Snow |
|---|---|---|---|---|---|---|---|
| 1778152316 | 21.11° C | 59% | 992.9 hPa | 0 mm | - | - | - |
| 1778152016 | 21.11° C | 59% | 992.9 hPa | 0 mm | - | - | - |
| 1778151715 | 20.56° C | 60% | 993 hPa | 0 mm | - | - | - |
| 1778151414 | 21.11° C | 59% | 993 hPa | 0 mm | - | - | - |
| 1778151114 | 21.67° C | 58% | 993.1 hPa | 0 mm | - | - | - |
| 1778150813 | 21.11° C | 59% | 992.6 hPa | 0 mm | - | - | - |
| 1778150513 | 21.11° C | 59% | 993 hPa | 0 mm | - | - | - |
| 1778150212 | 21.11° C | 59% | 992.8 hPa | 0 mm | - | - | - |
| 1778149911 | 21.11° C | 59% | 992.8 hPa | 0 mm | - | - | - |
| 1778149613 | 21.67° C | 59% | 993 hPa | 0 mm | - | - | - |
| 1778149310 | 21.67° C | 58% | 992.8 hPa | 0 mm | - | - | - |
| 1778149009 | 21.67° C | 58% | 992.8 hPa | 0 mm | - | - | - |
| 1778148709 | 21.67° C | 57% | 992.7 hPa | 0 mm | - | - | - |
| 1778148408 | 21.11° C | 58% | 992.8 hPa | 0 mm | - | - | - |
| 1778148108 | 21.67° C | 58% | 993 hPa | 0 mm | - | - | - |
| 1778147805 | 21.67° C | 59% | 993 hPa | 0 mm | - | - | - |
| 1778147505 | 21.11° C | 58% | 992.8 hPa | 0 mm | - | - | - |
| 1778147204 | 20.56° C | 60% | 993 hPa | 0 mm | - | - | - |
| 1778146903 | 20.56° C | 60% | 992.9 hPa | 0 mm | - | - | - |
| 1778146603 | 20.56° C | 60% | 992.6 hPa | 0 mm | - | - | - |
| 1778146302 | 21.67° C | 57% | 992.9 hPa | 0 mm | - | - | - |
| 1778146002 | 21.67° C | 58% | 992.7 hPa | 0 mm | - | - | - |
| 1778145701 | 21.11° C | 58% | 992.6 hPa | 0 mm | - | - | - |
| 1778145400 | 21.11° C | 59% | 992.8 hPa | 0 mm | - | - | - |
| 1778145100 | 21.11° C | 58% | 992.5 hPa | 0 mm | - | - | - |
* Rain latest hour (hover to see other rain measurements)
** Current wind speed in m/s (hover to see current wind gust speed)